EW5226 Weather Reports


Display with metric or nautical units.
time (UTC)temp
F
wind
direction
speed
MPH
gust
MPH
rain 1hr
in
rain 24hr
in
rain mn
in
humidity
%
barometer
mb
20260505123005 67 84 0.0 3.0 0.00 0.00 0.00 90 1016.2
20260505121504 64 99 0.0 1.0 0.00 0.00 0.00 92 1016.2
20260505120005 63 103 0.0 1.0 0.00 0.00 0.00 93 1016.2
20260505114501 63 103 0.0 0.0 0.00 0.00 0.00 93 1016.2
20260505113002 62 103 0.0 1.0 0.00 0.00 0.00 94 1015.9
20260505111600 61 221 0.0 0.0 0.00 0.00 0.00 94 1015.6
20260505110109 60 221 0.0 0.0 0.00 0.00 0.00 94 1015.3
20260505101559 60 66 0.0 0.0 0.00 0.00 0.00 93 1015.1
20260505100056 60 66 0.0 0.0 0.00 0.00 0.00 93 1014.9
20260505094555 60 66 0.0 0.0 0.00 0.00 0.00 93 1014.8
20260505093054 61 66 0.0 0.0 0.00 0.00 0.00 93 1014.9
20260505091606 61 67 0.0 0.0 0.00 0.00 0.00 92 1014.9
20260505090051 61 67 0.0 0.0 0.00 0.00 0.00 92 1014.7
20260505084551 61 66 0.0 0.0 0.00 0.00 0.00 92 1014.7
20260505083049 61 67 0.0 0.0 0.00 0.00 0.00 92 1014.5
20260505081552 62 67 0.0 0.0 0.00 0.00 0.00 91 1014.8
20260505080053 62 66 0.0 0.0 0.00 0.00 0.00 90 1014.4
20260505074544 62 66 0.0 0.0 0.00 0.00 0.00 90 1014.6
20260505073045 63 67 0.0 0.0 0.00 0.00 0.00 90 1014.7
20260505071539 63 67 0.0 0.0 0.00 0.00 0.00 88 1014.6
20260505070049 64 67 0.0 0.0 0.00 0.00 0.00 88 1014.9
20260505064535 64 66 0.0 0.0 0.00 0.00 0.00 87 1014.9
20260505063033 65 67 0.0 0.0 0.00 0.00 0.00 86 1015.1
20260505061537 64 66 0.0 0.0 0.00 0.00 0.00 85 1015.6
20260505060029 65 66 0.0 0.0 0.00 0.00 0.00 84 1015.5
20260505054532 66 66 0.0 0.0 0.00 0.00 0.00 83 1015.7
20260505053021 67 66 0.0 0.0 0.00 0.00 0.00 81 1015.8
20260505051520 67 67 0.0 0.0 0.00 0.00 0.00 79 1016.1
20260505041507 70 81 0.0 4.0 0.00 0.00 0.00 74 1016.5
20260505040007 70 70 0.0 1.0 0.00 0.00 0.00 74 1016.5
20260505034505 70 71 0.0 4.0 0.00 0.00 0.00 74 1016.5
20260505033004 70 68 0.0 3.0 0.00 0.00 0.00 74 1016.5
20260505031505 70 60 0.0 1.0 0.00 0.00 0.00 73 1016.4
20260505030004 70 72 0.0 3.0 0.00 0.00 0.00 73 1016.7
20260505024504 71 78 0.0 4.0 0.00 0.00 0.00 72 1016.5
20260505023008 71 354 0.0 2.0 0.00 0.00 0.00 72 1016.3
20260505021502 71 25 0.0 1.0 0.00 0.00 0.00 71 1016.2
20260505020001 72 79 0.0 1.0 0.00 0.00 0.00 70 1016.0
20260505014500 72 33 0.0 2.0 0.00 0.00 0.00 69 1015.8
20260505013100 73 129 0.0 4.0 0.00 0.00 0.00 68 1015.3
20260505011607 74 48 0.0 3.0 0.00 0.00 0.00 68 1015.3
20260505010100 74 75 0.0 5.0 0.00 0.00 0.00 67 1015.1
20260505004559 75 64 0.0 3.0 0.00 0.00 0.00 66 1014.9
20260505003059 75 70 1.0 5.0 0.00 0.00 0.00 64 1014.6
20260505001558 76 86 0.0 7.0 0.00 0.00 0.00 62 1014.8
20260505000115 77 84 0.0 4.0 0.00 0.00 0.00 61 1014.4
20260504234558 78 55 0.0 3.0 0.00 0.00 0.00 59 1014.1
20260504233108 79 65 0.0 9.0 0.00 0.00 0.00 56 1014.1
20260504231555 81 67 0.0 3.0 0.00 0.00 0.00 53 1013.9
20260504230055 84 76 0.0 4.0 0.00 0.00 0.00 49 1013.9
20260504224601 83 58 0.0 4.0 0.00 0.00 0.00 50 1013.9
20260504223117 83 70 0.0 4.0 0.00 0.00 0.00 48 1013.8
20260504221551 85 75 0.0 4.0 0.00 0.00 0.00 43 1014.0
20260504220051 87 70 0.0 6.0 0.00 0.00 0.00 40 1014.1
20260504214552 87 282 0.0 3.0 0.00 0.00 0.00 39 1013.9
20260504213059 89 8 0.0 2.0 0.00 0.00 0.00 35 1014.0
20260504211647 85 101 0.0 3.0 0.00 0.00 0.00 44 1014.1
20260504210045 86 70 0.0 6.0 0.00 0.00 0.00 41 1014.3
20260504204548 85 32 1.0 5.0 0.00 0.00 0.00 38 1014.2
20260504203059 85 59 4.0 10.0 0.00 0.00 0.00 37 1014.3
20260504201539 85 71 0.0 7.0 0.00 0.00 0.00 40 1014.4
20260504200037 83 51 1.0 9.0 0.00 0.00 0.00 40 1014.6
20260504194534 83 13 0.0 5.0 0.00 0.00 0.00 42 1014.8
20260504193032 83 102 1.0 5.0 0.00 0.00 0.00 43 1015.0
20260504191529 82 64 3.0 9.0 0.00 0.00 0.00 43 1015.2
20260504190028 81 41 4.0 8.0 0.00 0.00 0.00 44 1015.3
20260504184526 81 42 4.0 8.0 0.00 0.00 0.00 45 1015.6
20260504183023 82 80 2.0 7.0 0.00 0.00 0.00 46 1015.9
20260504181521 82 50 1.0 9.0 0.00 0.00 0.00 47 1016.4
20260504180020 82 346 3.0 10.0 0.00 0.00 0.00 44 1016.4
20260504174520 82 70 2.0 9.0 0.00 0.00 0.00 48 1016.4
20260504173019 82 58 0.0 7.0 0.00 0.00 0.00 47 1016.6
20260504171517 82 82 1.0 8.0 0.00 0.00 0.00 50 1016.7